TimeEDT,TemperatureF,Dew PointF,Humidity,Sea Level PressureIn,VisibilityMPH,Wind Direction,Wind SpeedMPH,Gust SpeedMPH,PrecipitationIn,Events,Conditions,WindDirDegrees,DateUTC
12:13 AM,69.8,66.6,89,29.96,5.0,NE,4.6,-,N/A,,Overcast,50,2013-08-09 04:13:00
12:34 AM,69.4,66.6,91,29.96,4.0,NNE,4.6,-,N/A,,Overcast,20,2013-08-09 04:34:00
12:53 AM,69.4,66.6,91,29.95,4.0,NE,3.5,-,N/A,,Overcast,40,2013-08-09 04:53:00
1:13 AM,69.3,66.6,91,29.95,3.0,NE,3.5,-,N/A,,Overcast,40,2013-08-09 05:13:00
1:33 AM,69.4,66.7,91,29.95,3.0,Calm,Calm,-,N/A,,Overcast,0,2013-08-09 05:33:00
1:53 AM,69.4,66.7,91,29.95,3.0,Calm,Calm,-,N/A,,Overcast,0,2013-08-09 05:53:00
2:14 AM,69.4,66.7,91,29.95,2.5,North,3.5,-,N/A,,Overcast,350,2013-08-09 06:14:00
2:33 AM,69.3,66.7,92,29.95,2.5,Calm,Calm,-,N/A,,Overcast,0,2013-08-09 06:33:00
2:53 AM,69.1,66.6,92,29.94,3.0,North,3.5,-,N/A,,Overcast,10,2013-08-09 06:53:00
3:14 AM,69.1,66.4,91,29.94,4.0,Calm,Calm,-,N/A,,Overcast,0,2013-08-09 07:14:00
3:33 AM,68.9,66.4,92,29.94,4.0,North,4.6,-,N/A,,Overcast,360,2013-08-09 07:33:00
3:53 AM,68.9,66.2,91,29.93,4.0,Calm,Calm,-,N/A,,Overcast,0,2013-08-09 07:53:00
4:14 AM,68.9,65.8,90,29.94,4.0,NNE,4.6,-,N/A,,Overcast,20,2013-08-09 08:14:00
4:33 AM,68.9,65.8,90,29.94,4.0,North,3.5,-,N/A,,Overcast,10,2013-08-09 08:33:00
4:53 AM,68.5,65.7,90,29.94,4.0,NNE,5.8,-,N/A,,Overcast,20,2013-08-09 08:53:00
5:14 AM,68.2,65.3,90,29.94,4.0,NNE,8.1,-,N/A,,Overcast,30,2013-08-09 09:14:00
5:33 AM,67.5,64.2,89,29.94,5.0,NNE,5.8,-,N/A,,Overcast,20,2013-08-09 09:33:00
5:53 AM,67.1,63.9,89,29.94,5.0,NNE,6.9,-,N/A,,Overcast,20,2013-08-09 09:53:00
6:14 AM,67.1,63.5,88,29.95,7.0,NNE,4.6,-,N/A,,Overcast,20,2013-08-09 10:14:00
6:33 AM,67.1,62.8,86,29.95,10.0,North,5.8,-,N/A,,Overcast,10,2013-08-09 10:33:00
6:53 AM,66.9,62.2,85,29.96,10.0,North,5.8,-,N/A,,Overcast,10,2013-08-09 10:53:00
7:14 AM,66.7,62.4,86,29.96,10.0,NNE,3.5,-,N/A,,Overcast,20,2013-08-09 11:14:00
7:33 AM,66.9,62.6,86,29.96,10.0,NNE,8.1,-,N/A,,Overcast,20,2013-08-09 11:33:00
7:53 AM,66.2,61.5,85,29.97,10.0,NE,4.6,-,N/A,,Overcast,40,2013-08-09 11:53:00
8:14 AM,66.2,61.2,84,29.97,10.0,NNE,4.6,-,N/A,,Overcast,20,2013-08-09 12:14:00
8:33 AM,65.7,60.1,82,29.98,10.0,North,5.8,-,N/A,,Overcast,10,2013-08-09 12:33:00
8:53 AM,65.5,60.1,83,29.99,10.0,North,4.6,-,N/A,,Overcast,360,2013-08-09 12:53:00
9:14 AM,65.3,60.4,84,29.99,4.0,NNE,5.8,-,0.01,,Overcast,30,2013-08-09 13:14:00
9:33 AM,64.4,60.6,88,30.00,1.2,North,8.1,-,0.03,,Overcast,360,2013-08-09 13:33:00
9:53 AM,62.2,59.0,89,30.00,2.5,NNE,5.8,-,0.12,,Overcast,30,2013-08-09 13:53:00
10:14 AM,62.6,59.9,91,30.00,2.5,NNE,4.6,-,N/A,,Overcast,30,2013-08-09 14:14:00
10:33 AM,63.3,60.4,90,30.00,3.0,NNE,4.6,-,0.01,,Overcast,30,2013-08-09 14:33:00
10:53 AM,64.4,60.8,88,30.01,10.0,NNW,3.5,-,0.01,,Overcast,340,2013-08-09 14:53:00
11:14 AM,64.4,60.3,86,30.01,10.0,Calm,Calm,-,N/A,,Overcast,0,2013-08-09 15:14:00
11:33 AM,64.9,59.4,82,30.01,10.0,Calm,Calm,-,N/A,,Overcast,0,2013-08-09 15:33:00
11:53 AM,66.4,59.5,79,30.01,10.0,NNW,3.5,-,N/A,,Overcast,340,2013-08-09 15:53:00
12:13 PM,67.1,58.8,75,30.01,10.0,Calm,Calm,-,N/A,,Overcast,0,2013-08-09 16:13:00
12:34 PM,68.4,59.2,72,30.01,10.0,North,4.6,-,N/A,,Overcast,10,2013-08-09 16:34:00
12:54 PM,69.8,60.6,73,30.00,10.0,NNE,4.6,-,N/A,,Mostly Cloudy,30,2013-08-09 16:54:00
1:13 PM,70.7,61.2,72,30.01,10.0,North,4.6,-,N/A,,Scattered Clouds,350,2013-08-09 17:13:00
1:34 PM,73.0,60.8,65,30.01,10.0,North,4.6,-,N/A,,Clear,350,2013-08-09 17:34:00
1:54 PM,74.3,56.1,53,30.01,10.0,North,6.9,-,N/A,,Mostly Cloudy,360,2013-08-09 17:54:00
2:13 PM,74.5,57.9,56,30.01,10.0,North,3.5,-,N/A,,Scattered Clouds,360,2013-08-09 18:13:00
2:34 PM,75.6,59.7,58,30.01,10.0,North,6.9,-,N/A,,Scattered Clouds,350,2013-08-09 18:34:00
2:54 PM,76.1,60.4,58,30.01,10.0,NE,4.6,-,N/A,,Clear,40,2013-08-09 18:54:00
3:13 PM,76.3,60.1,57,30.01,10.0,North,4.6,-,N/A,,Clear,10,2013-08-09 19:13:00
3:34 PM,77.0,60.8,57,30.01,10.0,NNW,5.8,-,N/A,,Clear,330,2013-08-09 19:34:00
3:54 PM,77.2,60.8,57,30.01,10.0,North,9.2,-,N/A,,Scattered Clouds,350,2013-08-09 19:54:00
4:13 PM,77.5,61.3,57,30.00,10.0,North,5.8,-,N/A,,Scattered Clouds,360,2013-08-09 20:13:00
4:34 PM,78.3,61.7,57,30.00,10.0,North,4.6,-,N/A,,Mostly Cloudy,360,2013-08-09 20:34:00
4:53 PM,76.3,59.9,57,30.00,10.0,North,8.1,-,N/A,,Mostly Cloudy,10,2013-08-09 20:53:00
5:13 PM,76.6,60.3,57,30.00,10.0,North,8.1,-,N/A,,Scattered Clouds,350,2013-08-09 21:13:00
5:34 PM,77.9,60.6,55,30.00,10.0,North,6.9,-,N/A,,Scattered Clouds,350,2013-08-09 21:34:00
5:53 PM,77.7,60.1,54,30.00,10.0,North,6.9,-,N/A,,Scattered Clouds,350,2013-08-09 21:53:00
6:13 PM,77.7,59.5,53,30.00,10.0,North,5.8,-,N/A,,Clear,360,2013-08-09 22:13:00
6:34 PM,77.2,60.1,55,30.00,10.0,North,6.9,-,N/A,,Clear,10,2013-08-09 22:34:00
6:53 PM,76.1,59.4,56,30.00,10.0,NNW,5.8,-,N/A,,Clear,330,2013-08-09 22:53:00
7:14 PM,75.2,59.4,58,30.00,10.0,North,5.8,-,N/A,,Clear,360,2013-08-09 23:14:00
7:33 PM,74.7,59.9,60,30.01,10.0,North,4.6,-,N/A,,Clear,350,2013-08-09 23:33:00
7:53 PM,74.3,60.1,61,30.01,10.0,Calm,Calm,-,N/A,,Clear,0,2013-08-09 23:53:00
8:14 PM,73.6,60.1,63,30.02,10.0,Calm,Calm,-,N/A,,Clear,0,2013-08-10 00:14:00
8:33 PM,72.0,60.6,67,30.02,10.0,Calm,Calm,-,N/A,,Clear,0,2013-08-10 00:33:00
8:54 PM,67.6,61.7,81,30.02,7.0,Calm,Calm,-,N/A,,Clear,0,2013-08-10 00:54:00
9:14 PM,66.7,61.9,84,30.03,5.0,Calm,Calm,-,N/A,,Clear,0,2013-08-10 01:14:00
9:33 PM,66.6,62.6,87,30.04,10.0,Calm,Calm,-,N/A,,Clear,0,2013-08-10 01:33:00
9:54 PM,66.4,62.8,88,30.05,10.0,Calm,Calm,-,N/A,,Clear,0,2013-08-10 01:54:00
10:14 PM,66.9,62.4,85,30.04,10.0,Calm,Calm,-,N/A,,Clear,0,2013-08-10 02:14:00
10:33 PM,67.1,62.2,84,30.05,10.0,SSW,3.5,-,N/A,,Clear,210,2013-08-10 02:33:00
10:54 PM,66.2,62.1,86,30.05,10.0,Calm,Calm,-,N/A,,Clear,0,2013-08-10 02:54:00
11:14 PM,66.2,62.8,89,30.05,10.0,Calm,Calm,-,N/A,,Clear,0,2013-08-10 03:14:00
11:33 PM,66.0,62.1,87,30.06,10.0,Calm,Calm,-,N/A,,Clear,0,2013-08-10 03:33:00
11:54 PM,65.8,62.2,88,30.05,10.0,Calm,Calm,-,N/A,,Clear,0,2013-08-10 03:54:00